Weather History for LEMO - July, 2013

Change the Weather History Date:

Wednesday, July 10, 2013

  Actual Average Record
Temperature  
Mean Temperature 86 °F -  
Max Temperature 102 °F 92 °F 107 °F (2006)
Min Temperature 69 °F 64 °F 59 °F (2004)
Cooling Degree Days 20    
Growing Degree Days 36 (Base 50)    
Moisture  
Dew Point 59 °F    
Average Humidity 40    
Maximum Humidity 64    
Minimum Humidity 22    
Precipitation  
Precipitation 0.00 in - - ()
Sea Level Pressure  
Sea Level Pressure 29.89 in    
Wind  
Wind Speed 3 mph ()    
Max Wind Speed 12 mph    
Max Gust Speed -    
Visibility 16.0 miles    
Events      
Averages and records for this station are not official NWS values.
T = Trace of Precipitation, MM = Missing Value Source: Averaged Metar Reports

Daily Weather History Graph

Daily Weather History Graph

Search for Another Location

Airport or City:

Trip Planner

Search our weather history database for the weather conditions in past years. The results will help you decide how hot, cold, wet, or windy it might be!

Date:

Astronomy

Jul. 10, 2013 Rise Set
Actual Time 7:10 AM CEST 9:44 PM CEST
Civil Twilight 6:40 AM CEST 10:14 PM CEST
Nautical Twilight 6:02 AM CEST 10:52 PM CEST
Astronomical Twilight 5:20 AM CEST 11:34 PM CEST
Moon 9:14 AM CEST (7/10) 10:51 PM CEST (7/10)
Length of Visible Light 15h 34m
Length of Day
14h 33m
Waxing Crescent, 4% of the Moon is Illuminated
Jul 10
Waxing Crescent
Jul 16
First Quarter
Jul 22
Full
Jul 29
Last Quarter
Aug 6
New

Hourly Weather History & Observations

Time (CEST) Temp. Heat Index Dew Point Humidity Pressure Visibility Wind Dir Wind Speed Gust Speed Precip Events Conditions
12:00 AM 82.4 °F 82.9 °F 60.8 °F 48% 29.95 in - Variable 1.2 mph - N/A   Clear
1:00 AM 78.8 °F - 59.0 °F 51% 29.95 in - West 3.5 mph - N/A   Clear
2:00 AM 78.8 °F - 59.0 °F 51% 29.95 in - SW 3.5 mph - N/A   Clear
3:00 AM 77.0 °F - 59.0 °F 54% 29.95 in - Variable 2.3 mph - N/A   Clear
4:00 AM 75.2 °F - 59.0 °F 57% 29.95 in - Variable 2.3 mph - N/A   Clear
5:00 AM 73.4 °F - 59.0 °F 61% 29.95 in - Calm Calm - N/A   Clear
6:00 AM 71.6 °F - 57.2 °F 60% 29.95 in - Calm Calm - N/A   Clear
7:00 AM 71.6 °F - 57.2 °F 60% 29.95 in - Variable 1.2 mph - N/A   Clear
8:00 AM 69.8 °F - 57.2 °F 64% 29.95 in - Calm Calm - N/A   Clear
9:00 AM 78.8 °F - 59.0 °F 51% 29.95 in - Calm Calm - N/A   Clear
10:00 AM 82.4 °F 82.5 °F 59.0 °F 45% 29.95 in - Variable 2.3 mph - N/A   Clear
11:00 AM 87.8 °F 86.5 °F 57.2 °F 35% 29.92 in - Variable 1.2 mph - N/A   Clear
12:00 PM 91.4 °F 89.9 °F 57.2 °F 31% 29.92 in - Variable 1.2 mph - N/A   Clear
1:00 PM 95.0 °F 94.4 °F 59.0 °F 30% 29.92 in - Calm Calm - N/A   Clear
2:00 PM 96.8 °F 96.2 °F 59.0 °F 28% 29.89 in - WSW 3.5 mph - N/A   Clear
3:00 PM 100.4 °F 100.2 °F 59.0 °F 25% 29.89 in - West 5.8 mph - N/A   Clear
4:00 PM 100.4 °F 100.2 °F 59.0 °F 25% 29.86 in - West 6.9 mph - N/A   Clear
5:00 PM 102.2 °F 102.4 °F 59.0 °F 24% 29.83 in - West 8.1 mph - N/A   Clear
6:00 PM 102.2 °F 101.4 °F 57.2 °F 22% 29.83 in - WSW 8.1 mph - N/A   Clear
7:00 PM 102.2 °F 102.4 °F 59.0 °F 24% 29.80 in - West 8.1 mph - N/A   Clear
8:00 PM 98 °F - 64 °F 23% 29.78 in 16 mi West 6.9 mph - -  
8:00 PM 98.6 °F 99.4 °F 60.8 °F 29% 29.80 in - West 10.4 mph - N/A   Clear
9:00 PM 93.2 °F 91.9 °F 57.2 °F 30% 29.80 in - West 11.5 mph - N/A   Clear
10:00 PM 86.0 °F 84.9 °F 57.2 °F 37% 29.83 in - WSW 8.1 mph - N/A   Clear
11:00 PM 84.2 °F 83.5 °F 57.2 °F 40% 29.83 in - SW 10.4 mph - N/A   Clear